Location: Forst
(46.9333°N, 15.4333°E)
Time: 20:27:03
(UTC+00:00)

N. Korean satellite - Pass Details

Date: 27 September 2021
Orbit: 450 x 495 km, 97.3° (Epoch: 25 October)

Event Time Altitude Azimuth Distance (km) Brightness Sun altitude
Rises 04:08:19 0° 15° (NNE) 2,533 10.5 -8.2°
Reaches altitude 10° 04:10:24 10° 19° (NNE) 1,658 9.6 -7.9°
Maximum altitude 04:13:55 61° 100° (E) 553 7.2 -7.3°
Drops below altitude 10° 04:17:29 10° 182° (S) 1,668 9.2 -6.7°
Sets 04:19:34 0° 186° (S) 2,550 10.1 -6.3°
